FIN8NP EFHK-EETU

Flight info

Callsign FIN8NP
Flight time 0h 33m
Altitude 22000
Route KOIVU Y123 LARTI/N0368F210 Q77 GONOS DCT OSKAV
Aircraft A319/M-SDE1E2E3FGIJ1M1RWXYZ/LB1

Departure

Time 2026-05-05 16:03
Airport Helsinki Vantaa Airport (EFHK)

Arrival

Time 2026-05-05 16:37
Airport Tartu Airport (EETU)
Time Latitude Longitude Altitude Speed Heading
2026-05-05 15:45 60.32070 24.96683 164 ft 0 kts 137°
2026-05-05 16:00 60.32067 24.96688 164 ft 2 kts 137°
2026-05-05 16:01 60.32051 24.96728 164 ft 4 kts 106°
2026-05-05 16:01 60.32065 24.96788 164 ft 7 kts 52°
2026-05-05 16:01 60.32114 24.96872 164 ft 12 kts 19°
2026-05-05 16:01 60.32189 24.96801 165 ft 13 kts 330°
2026-05-05 16:02 60.32267 24.96711 166 ft 13 kts 329°
2026-05-05 16:02 60.32341 24.96623 170 ft 11 kts 329°
2026-05-05 16:02 60.32399 24.96552 175 ft 10 kts 328°
2026-05-05 16:02 60.32402 24.96438 177 ft 11 kts 227°
2026-05-05 16:03 60.32392 24.96418 177 ft 1 kts 227°
2026-05-05 16:03 60.32284 24.96178 177 ft 64 kts 228°
2026-05-05 16:03 60.31799 24.95109 207 ft 134 kts 230°
2026-05-05 16:03 60.31164 24.93694 947 ft 136 kts 231°
2026-05-05 16:04 60.30520 24.92300 1767 ft 144 kts 228°
2026-05-05 16:04 60.29600 24.91104 2330 ft 170 kts 214°
2026-05-05 16:04 60.28499 24.89879 2896 ft 193 kts 213°
2026-05-05 16:04 60.27244 24.88491 3431 ft 218 kts 213°
2026-05-05 16:05 60.25864 24.86975 4396 ft 230 kts 212°
2026-05-05 16:05 60.24444 24.85420 5568 ft 234 kts 212°
2026-05-05 16:05 60.22927 24.84090 6692 ft 243 kts 199°
2026-05-05 16:05 60.21294 24.83300 7845 ft 245 kts 198°
2026-05-05 16:06 60.19622 24.82545 9068 ft 246 kts 199°
2026-05-05 16:06 60.17944 24.81796 10216 ft 248 kts 200°
2026-05-05 16:06 60.16258 24.81037 11341 ft 247 kts 201°
2026-05-05 16:06 60.14585 24.80279 12476 ft 246 kts 202°
2026-05-05 16:07 60.12846 24.79465 13060 ft 268 kts 202°
2026-05-05 16:07 60.10978 24.78573 13469 ft 291 kts 202°
2026-05-05 16:07 60.08967 24.77633 14143 ft 301 kts 201°
2026-05-05 16:07 60.06898 24.76692 14957 ft 306 kts 201°
2026-05-05 16:08 60.04812 24.75755 15783 ft 310 kts 201°
2026-05-05 16:08 60.02691 24.74797 16613 ft 314 kts 202°
2026-05-05 16:08 60.00547 24.73822 17427 ft 318 kts 202°
2026-05-05 16:08 59.98378 24.72832 18225 ft 322 kts 202°
2026-05-05 16:09 59.96101 24.72307 18902 ft 342 kts 187°
2026-05-05 16:09 59.93706 24.73542 19585 ft 372 kts 165°
2026-05-05 16:09 59.91379 24.75949 20310 ft 379 kts 162°
2026-05-05 16:09 59.89047 24.78478 20682 ft 382 kts 161°
2026-05-05 16:10 59.86748 24.81016 20788 ft 380 kts 161°
2026-05-05 16:10 59.84492 24.83534 20807 ft 365 kts 161°
2026-05-05 16:10 59.82293 24.85969 20806 ft 360 kts 162°
2026-05-05 16:10 59.80097 24.88358 20810 ft 359 kts 162°
2026-05-05 16:11 59.77845 24.90765 20812 ft 371 kts 162°
2026-05-05 16:11 59.71218 24.97876 20820 ft 359 kts 162°
2026-05-05 16:12 59.69022 25.00229 20821 ft 359 kts 162°
2026-05-05 16:12 59.64623 25.04911 20824 ft 359 kts 162°
2026-05-05 16:13 59.58013 25.11897 20827 ft 359 kts 162°
2026-05-05 16:13 59.55807 25.14224 20825 ft 359 kts 162°
2026-05-05 16:13 59.53627 25.16525 20822 ft 359 kts 162°
2026-05-05 16:14 59.49217 25.21172 20818 ft 359 kts 162°
2026-05-05 16:14 59.44806 25.25815 20815 ft 360 kts 162°
2026-05-05 16:15 59.40391 25.30457 20825 ft 360 kts 162°
2026-05-05 16:15 59.35959 25.35084 20820 ft 360 kts 162°
2026-05-05 16:16 59.31530 25.39690 20821 ft 360 kts 162°
2026-05-05 16:16 59.27099 25.44292 20820 ft 360 kts 162°
2026-05-05 16:17 59.22670 25.48867 20820 ft 360 kts 162°
2026-05-05 16:17 59.20459 25.51154 20821 ft 360 kts 162°
2026-05-05 16:18 59.16026 25.55728 20822 ft 360 kts 162°
2026-05-05 16:18 59.13817 25.58008 20818 ft 360 kts 162°
2026-05-05 16:18 59.09392 25.62558 20763 ft 359 kts 162°
2026-05-05 16:19 59.07190 25.64814 20494 ft 356 kts 162°
2026-05-05 16:19 59.05008 25.67044 20230 ft 354 kts 162°
2026-05-05 16:19 59.00660 25.71471 19730 ft 351 kts 162°
2026-05-05 16:20 58.96348 25.75864 19228 ft 348 kts 162°
2026-05-05 16:20 58.92070 25.80213 18732 ft 346 kts 162°
2026-05-05 16:21 58.87837 25.84479 18249 ft 343 kts 162°
2026-05-05 16:22 58.81542 25.90825 17447 ft 339 kts 162°
2026-05-05 16:22 58.77379 25.95012 16904 ft 336 kts 162°
2026-05-05 16:23 58.73247 25.99147 16373 ft 333 kts 162°
2026-05-05 16:23 58.71256 26.01502 16110 ft 341 kts 151°
2026-05-05 16:23 58.68186 26.08686 15564 ft 355 kts 126°
2026-05-05 16:24 58.66969 26.12822 15136 ft 354 kts 126°
2026-05-05 16:24 58.65749 26.16929 14703 ft 354 kts 127°
2026-05-05 16:24 58.63294 26.25089 13828 ft 353 kts 127°
2026-05-05 16:25 58.62058 26.29179 13353 ft 353 kts 127°
2026-05-05 16:25 58.59625 26.37225 12467 ft 348 kts 126°
2026-05-05 16:25 58.58415 26.41236 12013 ft 347 kts 126°
2026-05-05 16:26 58.56052 26.49063 11525 ft 330 kts 127°
2026-05-05 16:26 58.53751 26.56589 10758 ft 323 kts 127°
2026-05-05 16:27 58.52615 26.60298 10267 ft 321 kts 127°
2026-05-05 16:27 58.51497 26.63978 9775 ft 318 kts 126°
2026-05-05 16:27 58.50395 26.67638 9240 ft 316 kts 126°
2026-05-05 16:27 58.49305 26.71261 8699 ft 313 kts 126°
2026-05-05 16:28 58.48233 26.74814 8187 ft 312 kts 126°
2026-05-05 16:28 58.47154 26.78386 7765 ft 310 kts 126°
2026-05-05 16:28 58.46425 26.80792 7512 ft 308 kts 126°
2026-05-05 16:28 58.45102 26.85147 6898 ft 304 kts 125°
2026-05-05 16:29 58.44074 26.88538 6722 ft 284 kts 126°
2026-05-05 16:29 58.43120 26.91689 6499 ft 268 kts 126°
2026-05-05 16:29 58.42190 26.94733 6047 ft 263 kts 126°
2026-05-05 16:29 58.41269 26.97735 5598 ft 259 kts 126°
2026-05-05 16:30 58.40201 27.00433 5410 ft 252 kts 143°
2026-05-05 16:30 58.38811 27.02332 5293 ft 237 kts 161°
2026-05-05 16:30 58.37308 27.03352 5018 ft 222 kts 177°
2026-05-05 16:30 58.35817 27.03597 4736 ft 211 kts 187°
2026-05-05 16:31 58.34377 27.03652 4430 ft 209 kts 187°
2026-05-05 16:31 58.32956 27.03709 4148 ft 199 kts 188°
2026-05-05 16:31 58.31738 27.02976 3819 ft 175 kts 225°
2026-05-05 16:31 58.31176 27.01066 3523 ft 166 kts 261°
2026-05-05 16:32 58.31136 26.98876 3270 ft 164 kts 268°
2026-05-05 16:32 58.31110 26.96726 3037 ft 160 kts 268°
2026-05-05 16:32 58.31085 26.94634 2811 ft 156 kts 267°
2026-05-05 16:32 58.31068 26.93279 2671 ft 153 kts 267°
2026-05-05 16:33 58.31044 26.91292 2466 ft 147 kts 267°
2026-05-05 16:33 58.31020 26.89410 2276 ft 138 kts 268°
2026-05-05 16:33 58.30997 26.87637 2096 ft 131 kts 268°
2026-05-05 16:33 58.30969 26.85464 1874 ft 117 kts 268°
2026-05-05 16:34 58.30949 26.83955 1723 ft 112 kts 268°
2026-05-05 16:34 58.30936 26.82961 1621 ft 111 kts 269°
2026-05-05 16:34 58.30917 26.81518 1479 ft 110 kts 269°
2026-05-05 16:34 58.30897 26.80036 1317 ft 111 kts 268°
2026-05-05 16:35 58.30877 26.78573 1151 ft 110 kts 267°
2026-05-05 16:35 58.30858 26.77144 991 ft 109 kts 268°
2026-05-05 16:35 58.30839 26.75704 828 ft 109 kts 269°
2026-05-05 16:35 58.30818 26.74261 672 ft 109 kts 269°
2026-05-05 16:36 58.30801 26.72828 542 ft 108 kts 268°
2026-05-05 16:36 58.30784 26.71400 373 ft 109 kts 267°
2026-05-05 16:36 58.30762 26.69950 220 ft 108 kts 269°
2026-05-05 16:36 58.30743 26.68787 226 ft 58 kts 268°
2026-05-05 16:37 58.30736 26.68340 228 ft 27 kts 268°
2026-05-05 16:37 58.30732 26.67998 225 ft 25 kts 268°
2026-05-05 16:37 58.30728 26.67679 222 ft 24 kts 268°
2026-05-05 16:37 58.30722 26.67352 219 ft 26 kts 268°
2026-05-05 16:38 58.30709 26.67182 226 ft 2 kts 160°
2026-05-05 16:38 58.30712 26.67215 228 ft 6 kts 80°
2026-05-05 16:38 58.30723 26.67362 219 ft 16 kts 88°
2026-05-05 16:38 58.30725 26.67592 222 ft 17 kts 90°
2026-05-05 16:39 58.30729 26.67818 224 ft 17 kts 88°
2026-05-05 16:39 58.30733 26.68043 226 ft 17 kts 88°
2026-05-05 16:39 58.30735 26.68263 227 ft 17 kts 89°
2026-05-05 16:39 58.30738 26.68486 229 ft 17 kts 89°
2026-05-05 16:40 58.30742 26.68718 230 ft 19 kts 88°
2026-05-05 16:40 58.30746 26.68987 222 ft 22 kts 89°
2026-05-05 16:40 58.30810 26.69100 220 ft 13 kts
2026-05-05 16:40 58.30873 26.69099 221 ft 1 kts 359°
2026-05-05 16:41 58.30878 26.69098 221 ft 2 kts 356°
2026-05-05 16:41 58.30915 26.69072 222 ft 9 kts 341°
2026-05-05 16:41 58.30957 26.69089 222 ft 4 kts 79°
2026-05-05 16:42 58.30958 26.69117 222 ft 0 kts 87°